EW5897 Weather Reports


Display with metric or nautical units.
time (UTC)temp
F
wind
direction
speed
MPH
gust
MPH
rain 1hr
in
rain 24hr
in
rain mn
in
humidity
%
barometer
mb
20260831133419 51 207 4.0 10.0 0.00 0.74 0.01 95 996.2
20260831130927 50 204 4.0 9.0 0.01 0.74 0.01 95 996.9
20260831124926 50 204 6.0 10.0 0.01 0.74 0.01 95 997.2
20260831123423 50 200 3.0 8.0 0.01 0.74 0.01 95 997.5
20260831121916 49 176 3.0 8.0 0.00 0.73 0.00 96 997.5
20260831115915 49 216 2.0 7.0 0.00 0.73 0.00 96 997.6
20260831114411 48 183 1.0 7.0 0.00 0.73 0.00 96 998.0
20260831112905 48 224 2.0 6.0 0.00 0.73 0.00 96 998.2
20260831110931 48 173 1.0 5.0 0.00 0.73 0.00 96 998.3
20260831104928 47 160 0.0 3.0 0.00 0.73 0.00 95 998.2
20260831103418 47 179 0.0 0.0 0.00 0.73 0.00 95 998.7
20260831101419 47 175 0.0 2.0 0.00 0.73 0.00 95 998.9
20260831095416 46 199 0.0 3.0 0.00 0.73 0.00 95 999.1
20260831093912 46 153 0.0 2.0 0.00 0.73 0.00 94 999.4
20260831091926 47 192 0.0 0.0 0.00 0.73 0.00 95 999.5
20260831085926 47 189 0.0 0.0 0.00 0.73 0.00 96 999.9
20260831083926 47 184 0.0 0.0 0.00 0.73 0.00 95 1000.0
20260831082416 46 221 0.0 3.0 0.00 0.73 0.00 95 1000.2
20260831080419 46 215 1.0 4.0 0.00 0.73 0.00 94 1000.2
20260831074435 47 217 2.0 4.0 0.00 0.73 0.00 94 1000.2
20260831072923 48 213 2.0 4.0 0.00 0.73 0.00 93 1000.3
20260831071418 49 216 2.0 4.0 0.00 0.73 0.00 93 1000.2
20260831065423 50 216 2.0 5.0 0.00 0.73 0.00 92 1000.3
20260831063430 51 236 4.0 8.0 0.00 0.73 0.00 93 1000.3
20260831061929 52 222 5.0 8.0 0.00 0.73 0.00 93 1000.5
20260831055939 52 230 3.0 6.0 0.01 0.73 0.00 92 1000.6
20260831054435 53 259 2.0 4.0 0.01 0.73 0.73 91 1000.7
20260831052426 54 259 3.0 7.0 0.01 0.73 0.73 90 1001.3
20260831050429 55 270 5.0 9.0 0.00 0.72 0.72 90 1001.4
20260831044928 56 259 6.0 13.0 0.00 0.72 0.72 91 1001.6
20260831042934 57 242 8.0 17.0 0.01 0.72 0.72 91 1001.1
20260831040931 59 301 10.0 25.0 0.01 0.72 0.72 93 1000.7
20260831035426 61 264 8.0 13.0 0.01 0.72 0.72 96 1000.7
20260831033434 61 229 5.0 8.0 0.00 0.71 0.71 95 1001.6
20260831031916 61 219 2.0 5.0 0.00 0.71 0.71 95 1001.6
20260831025933 62 240 4.0 8.0 0.00 0.71 0.71 95 1001.4
20260831024432 62 222 3.0 11.0 0.00 0.71 0.71 95 1001.1
20260831022426 62 256 7.0 12.0 0.00 0.71 0.71 96 1000.8
20260831020916 62 242 6.0 10.0 0.00 0.71 0.71 96 1000.6
20260831015415 62 217 6.0 9.0 0.00 0.72 0.71 95 1001.2
20260831013431 63 213 1.0 4.0 0.00 0.72 0.71 95 1001.6
20260831011433 63 229 4.0 7.0 0.00 0.72 0.71 95 1001.6
20260831005935 63 231 2.0 5.0 0.00 0.72 0.71 95 1001.2
20260831003922 64 252 2.0 8.0 0.00 0.72 0.71 95 1001.1
20260831002414 64 234 4.0 9.0 0.00 0.72 0.71 95 1001.2
20260831000428 63 222 4.0 7.0 0.00 0.72 0.71 96 1001.2
20260830234923 63 236 2.0 5.0 0.00 1.01 0.71 96 1001.0
20260830232928 63 219 0.0 2.0 0.00 1.01 0.71 96 1000.8
20260830231426 62 230 2.0 5.0 0.02 1.01 0.71 97 1000.6
20260830225432 62 188 0.0 3.0 0.03 1.08 0.71 97 1000.8
20260830223917 62 127 2.0 4.0 0.03 1.08 0.71 96 1001.0
20260830221938 61 52 0.0 5.0 0.02 1.07 0.70 96 1001.4
20260830220431 61 130 1.0 4.0 0.00 1.04 0.68 96 1002.2
20260830214924 61 89 2.0 7.0 0.01 1.66 0.68 96 1001.9
20260830212923 60 93 2.0 4.0 0.01 1.66 0.68 96 1001.9
20260830211414 60 99 3.0 11.0 0.02 1.66 0.68 96 1001.7
20260830205431 60 72 6.0 10.0 0.54 1.66 0.68 95 1001.7
20260830203912 60 216 0.0 5.0 0.64 1.65 0.67 95 1001.7
20260830201924 60 88 3.0 4.0 0.66 1.65 0.67 94 1001.7
20260830195930 61 223 12.0 16.0 0.30 1.29 0.31 92 1003.6
20260830194425 63 315 10.0 13.0 0.05 1.04 0.06 90 1001.9
20260830192917 68 220 2.0 9.0 0.00 1.00 0.01 92 1002.3
20260830190924 68 117 7.0 11.0 0.00 1.00 0.01 91 1002.2
20260830184934 68 87 7.0 12.0 0.00 1.00 0.01 91 1002.3
20260830183425 68 104 9.0 17.0 0.00 1.00 0.01 90 1002.1
20260830181911 69 61 7.0 18.0 0.00 1.00 0.01 89 1003.0
20260830175923 69 84 11.0 16.0 0.00 1.00 0.01 90 1003.0
20260830173923 68 122 10.0 15.0 0.01 1.00 0.01 91 1003.2
20260830171927 67 88 9.0 14.0 0.01 1.00 0.01 92 1003.7
20260830165914 67 113 9.0 14.0 0.01 1.00 0.01 91 1004.0
20260830163940 68 113 10.0 15.0 0.00 0.99 0.00 88 1004.2
20260830162431 69 106 10.0 17.0 0.00 0.99 0.00 87 1004.5
20260830160432 69 98 8.0 16.0 0.00 0.99 0.00 88 1004.5
20260830154419 70 96 11.0 18.0 0.00 0.99 0.00 86 1004.6
20260830152916 69 128 9.0 19.0 0.00 0.99 0.00 87 1004.8
20260830150920 67 80 11.0 16.0 0.00 0.99 0.00 87 1005.3
20260830145417 65 89 9.0 17.0 0.00 0.99 0.00 89 1005.6
20260830143416 66 112 8.0 15.0 0.00 0.99 0.00 88 1006.1
20260830141915 63 66 7.0 14.0 0.00 0.99 0.00 91 1006.3
20260830140413 63 69 9.0 13.0 0.00 0.99 0.00 92 1006.3
20260830134433 62 87 5.0 9.0 0.00 0.99 0.00 92 1006.6